Time,TemperatureF,DewpointF,PressureIn,WindDirection,WindDirectionDegrees,WindSpeedMPH,WindSpeedGustMPH,Humidity,HourlyPrecipIn,Conditions,Clouds,dailyrainin,SolarRadiationWatts/m^2,SoftwareType,DateUTC
2013-04-07 00:03:00,52.8,49.9,29.93,WNW,293,0.0,6.0,90,0.00,,,0.00,0,HR-IXPWINDi_r2_v1.2.,2013-04-07 07:03:00,
2013-04-07 00:08:00,52.6,49.4,29.93,WNW,293,0.0,5.0,89,0.00,,,0.00,0,HR-IXPWINDi_r2_v1.2.,2013-04-07 07:08:00,
2013-04-07 00:13:00,52.4,49.2,29.93,WNW,293,0.0,2.0,89,0.00,,,0.00,0,HR-IXPWINDi_r2_v1.2.,2013-04-07 07:13:00,
2013-04-07 00:18:00,52.1,48.9,29.93,WNW,293,1.0,1.0,89,0.00,,,0.00,0,HR-IXPWINDi_r2_v1.2.,2013-04-07 07:18:00,
2013-04-07 00:23:00,52.1,49.2,29.93,WNW,293,0.0,3.0,90,0.00,,,0.00,0,HR-IXPWINDi_r2_v1.2.,2013-04-07 07:23:00,
2013-04-07 00:28:00,51.8,48.9,29.93,WNW,293,0.0,3.0,90,0.00,,,0.00,0,HR-IXPWINDi_r2_v1.2.,2013-04-07 07:28:00,
2013-04-07 00:34:00,51.5,48.6,29.93,WNW,293,0.0,1.0,90,0.00,,,0.00,0,HR-IXPWINDi_r2_v1.2.,2013-04-07 07:34:00,
2013-04-07 00:39:00,51.2,48.3,29.93,WNW,293,0.0,0.0,90,0.00,,,0.00,0,HR-IXPWINDi_r2_v1.2.,2013-04-07 07:39:00,
2013-04-07 00:44:00,50.8,47.9,29.93,WNW,293,0.0,1.0,90,0.00,,,0.00,0,HR-IXPWINDi_r2_v1.2.,2013-04-07 07:44:00,
2013-04-07 00:49:00,50.9,48.3,29.93,WNW,293,0.0,2.0,91,0.00,,,0.00,0,HR-IXPWINDi_r2_v1.2.,2013-04-07 07:49:00,
2013-04-07 00:55:00,50.7,48.1,29.93,WNW,293,1.0,2.0,91,0.00,,,0.00,0,HR-IXPWINDi_r2_v1.2.,2013-04-07 07:55:00,
2013-04-07 01:00:00,50.7,48.1,29.93,WNW,293,2.0,3.0,91,0.00,,,0.00,0,HR-IXPWINDi_r2_v1.2.,2013-04-07 08:00:00,
2013-04-07 01:05:00,51.4,48.8,29.93,WNW,293,0.0,3.0,91,0.00,,,0.00,0,HR-IXPWINDi_r2_v1.2.,2013-04-07 08:05:00,
2013-04-07 01:10:00,51.9,48.7,29.92,WNW,293,0.0,3.0,89,0.00,,,0.00,0,HR-IXPWINDi_r2_v1.2.,2013-04-07 08:10:00,
2013-04-07 01:16:00,51.3,48.1,29.93,WNW,293,0.0,2.0,89,0.00,,,0.00,0,HR-IXPWINDi_r2_v1.2.,2013-04-07 08:16:00,
2013-04-07 01:21:00,50.9,47.7,29.93,WNW,293,0.0,1.0,89,0.00,,,0.00,0,HR-IXPWINDi_r2_v1.2.,2013-04-07 08:21:00,
2013-04-07 01:26:00,50.6,47.7,29.93,WNW,293,0.0,1.0,90,0.00,,,0.00,0,HR-IXPWINDi_r2_v1.2.,2013-04-07 08:26:00,
2013-04-07 01:31:00,50.5,47.6,29.94,WNW,293,0.0,2.0,90,0.00,,,0.00,0,HR-IXPWINDi_r2_v1.2.,2013-04-07 08:31:00,
2013-04-07 01:37:00,50.4,47.5,29.94,WNW,293,1.0,2.0,90,0.00,,,0.00,0,HR-IXPWINDi_r2_v1.2.,2013-04-07 08:37:00,
2013-04-07 01:42:00,50.3,47.4,29.93,WNW,293,1.0,3.0,90,0.00,,,0.00,0,HR-IXPWINDi_r2_v1.2.,2013-04-07 08:42:00,
2013-04-07 01:47:00,50.5,47.3,29.93,WNW,294,1.0,3.0,89,0.00,,,0.00,0,HR-IXPWINDi_r2_v1.2.,2013-04-07 08:47:00,
2013-04-07 01:52:00,50.5,47.6,29.93,WNW,294,0.0,2.0,90,0.00,,,0.00,0,HR-IXPWINDi_r2_v1.2.,2013-04-07 08:52:00,
2013-04-07 01:57:00,50.5,47.6,29.93,WNW,294,1.0,2.0,90,0.00,,,0.00,0,HR-IXPWINDi_r2_v1.2.,2013-04-07 08:57:00,
2013-04-07 02:02:00,50.6,47.4,29.93,WNW,294,0.0,2.0,89,0.00,,,0.00,0,HR-IXPWINDi_r2_v1.2.,2013-04-07 09:02:00,
2013-04-07 02:08:00,50.7,47.5,29.92,WNW,294,1.0,1.0,89,0.00,,,0.00,0,HR-IXPWINDi_r2_v1.2.,2013-04-07 09:08:00,
2013-04-07 02:13:00,50.3,47.1,29.92,WNW,294,0.0,1.0,89,0.00,,,0.00,0,HR-IXPWINDi_r2_v1.2.,2013-04-07 09:13:00,
2013-04-07 02:18:00,49.9,46.7,29.92,WNW,294,1.0,2.0,89,0.00,,,0.00,0,HR-IXPWINDi_r2_v1.2.,2013-04-07 09:18:00,
2013-04-07 02:23:00,49.7,46.8,29.92,WNW,294,0.0,2.0,90,0.00,,,0.00,0,HR-IXPWINDi_r2_v1.2.,2013-04-07 09:23:00,
2013-04-07 02:28:00,49.6,46.7,29.92,WNW,294,0.0,2.0,90,0.00,,,0.00,0,HR-IXPWINDi_r2_v1.2.,2013-04-07 09:28:00,
2013-04-07 02:33:00,49.4,46.5,29.91,WNW,294,0.0,1.0,90,0.00,,,0.00,0,HR-IXPWINDi_r2_v1.2.,2013-04-07 09:33:00,
2013-04-07 02:39:00,49.1,46.2,29.91,WNW,294,1.0,2.0,90,0.00,,,0.00,0,HR-IXPWINDi_r2_v1.2.,2013-04-07 09:39:00,
2013-04-07 02:44:00,49.4,46.8,29.91,North,355,0.0,3.0,91,0.00,,,0.00,0,HR-IXPWINDi_r2_v1.2.,2013-04-07 09:44:00,
2013-04-07 02:49:00,49.4,46.5,29.91,North,355,0.0,3.0,90,0.00,,,0.00,0,HR-IXPWINDi_r2_v1.2.,2013-04-07 09:49:00,
2013-04-07 02:54:00,49.1,46.2,29.90,North,355,0.0,2.0,90,0.00,,,0.00,0,HR-IXPWINDi_r2_v1.2.,2013-04-07 09:54:00,
2013-04-07 02:59:00,49.1,46.5,29.90,North,355,0.0,2.0,91,0.00,,,0.00,0,HR-IXPWINDi_r2_v1.2.,2013-04-07 09:59:00,
2013-04-07 03:05:00,49.1,46.2,29.90,NNW,340,2.0,3.0,90,0.00,,,0.00,0,HR-IXPWINDi_r2_v1.2.,2013-04-07 10:05:00,
2013-04-07 03:10:00,49.5,46.6,29.90,NW,307,0.0,4.0,90,0.00,,,0.00,0,HR-IXPWINDi_r2_v1.2.,2013-04-07 10:10:00,
2013-04-07 03:15:00,49.7,46.8,29.89,NW,307,0.0,4.0,90,0.00,,,0.00,0,HR-IXPWINDi_r2_v1.2.,2013-04-07 10:15:00,
2013-04-07 03:20:00,49.9,46.7,29.90,WNW,284,2.0,4.0,89,0.00,,,0.00,0,HR-IXPWINDi_r2_v1.2.,2013-04-07 10:20:00,
2013-04-07 03:25:00,49.7,46.2,29.90,WNW,284,0.0,4.0,88,0.00,,,0.00,0,HR-IXPWINDi_r2_v1.2.,2013-04-07 10:25:00,
2013-04-07 03:31:00,49.6,46.1,29.90,WNW,284,0.0,2.0,88,0.00,,,0.00,0,HR-IXPWINDi_r2_v1.2.,2013-04-07 10:31:00,
2013-04-07 03:36:00,49.5,46.0,29.89,WNW,284,1.0,3.0,88,0.00,,,0.00,0,HR-IXPWINDi_r2_v1.2.,2013-04-07 10:36:00,
2013-04-07 03:41:00,49.6,45.8,29.89,WNW,284,1.0,3.0,87,0.00,,,0.00,0,HR-IXPWINDi_r2_v1.2.,2013-04-07 10:41:00,
2013-04-07 03:47:00,49.1,45.3,29.89,WNW,284,0.0,2.0,87,0.00,,,0.00,0,HR-IXPWINDi_r2_v1.2.,2013-04-07 10:47:00,
2013-04-07 03:52:00,48.8,45.3,29.90,WNW,284,0.0,2.0,88,0.00,,,0.00,0,HR-IXPWINDi_r2_v1.2.,2013-04-07 10:52:00,
2013-04-07 03:57:00,48.7,45.5,29.89,WNW,284,0.0,1.0,89,0.00,,,0.00,0,HR-IXPWINDi_r2_v1.2.,2013-04-07 10:57:00,
2013-04-07 04:02:00,48.4,45.2,29.89,WNW,284,0.0,1.0,89,0.00,,,0.00,0,HR-IXPWINDi_r2_v1.2.,2013-04-07 11:02:00,
2013-04-07 04:08:00,48.2,45.1,29.89,WNW,284,0.0,1.0,89,0.00,,,0.00,0,HR-IXPWINDi_r2_v1.2.,2013-04-07 11:08:00,
2013-04-07 04:13:00,48.1,45.0,29.89,WNW,284,0.0,1.0,89,0.00,,,0.00,0,HR-IXPWINDi_r2_v1.2.,2013-04-07 11:13:00,
2013-04-07 04:18:00,47.9,45.0,29.89,WNW,284,2.0,2.0,90,0.00,,,0.00,0,HR-IXPWINDi_r2_v1.2.,2013-04-07 11:18:00,
2013-04-07 04:23:00,47.9,44.8,29.89,WNW,284,0.0,2.0,89,0.00,,,0.00,0,HR-IXPWINDi_r2_v1.2.,2013-04-07 11:23:00,
2013-04-07 04:28:00,47.6,44.5,29.89,WNW,284,0.0,2.0,89,0.00,,,0.00,0,HR-IXPWINDi_r2_v1.2.,2013-04-07 11:28:00,
2013-04-07 04:33:00,47.7,44.9,29.89,WNW,290,3.0,4.0,90,0.00,,,0.00,0,HR-IXPWINDi_r2_v1.2.,2013-04-07 11:33:00,
2013-04-07 04:38:00,48.6,45.7,29.89,WNW,294,1.0,4.0,90,0.00,,,0.00,0,HR-IXPWINDi_r2_v1.2.,2013-04-07 11:38:00,
2013-04-07 04:44:00,48.7,45.2,29.89,North,5,1.0,4.0,88,0.00,,,0.00,0,HR-IXPWINDi_r2_v1.2.,2013-04-07 11:44:00,
2013-04-07 04:49:00,48.9,45.4,29.89,North,5,1.0,3.0,88,0.00,,,0.00,0,HR-IXPWINDi_r2_v1.2.,2013-04-07 11:49:00,
2013-04-07 04:54:00,49.0,45.2,29.88,NW,309,0.0,2.0,87,0.00,,,0.00,0,HR-IXPWINDi_r2_v1.2.,2013-04-07 11:54:00,
2013-04-07 04:59:00,48.7,44.9,29.89,NW,309,0.0,2.0,87,0.00,,,0.00,0,HR-IXPWINDi_r2_v1.2.,2013-04-07 11:59:00,
2013-04-07 05:05:00,48.9,44.8,29.89,NW,312,0.0,2.0,86,0.00,,,0.00,0,HR-IXPWINDi_r2_v1.2.,2013-04-07 12:05:00,
2013-04-07 05:10:00,49.4,45.3,29.88,WNW,297,1.0,4.0,86,0.00,,,0.00,0,HR-IXPWINDi_r2_v1.2.,2013-04-07 12:10:00,
2013-04-07 05:15:00,49.3,44.6,29.89,WNW,297,0.0,4.0,84,0.00,,,0.00,0,HR-IXPWINDi_r2_v1.2.,2013-04-07 12:15:00,
2013-04-07 05:20:00,49.1,45.0,29.89,NNW,327,1.0,4.0,86,0.00,,,0.00,0,HR-IXPWINDi_r2_v1.2.,2013-04-07 12:20:00,
2013-04-07 05:25:00,49.3,44.6,29.89,NNW,327,1.0,4.0,84,0.00,,,0.00,0,HR-IXPWINDi_r2_v1.2.,2013-04-07 12:25:00,
2013-04-07 05:31:00,49.2,44.8,29.89,WNW,292,4.0,5.0,85,0.00,,,0.00,0,HR-IXPWINDi_r2_v1.2.,2013-04-07 12:31:00,
2013-04-07 05:36:00,49.7,45.0,29.89,WNW,288,0.0,5.0,84,0.00,,,0.00,0,HR-IXPWINDi_r2_v1.2.,2013-04-07 12:36:00,
2013-04-07 05:42:00,49.5,44.8,29.89,WNW,288,0.0,5.0,84,0.00,,,0.00,0,HR-IXPWINDi_r2_v1.2.,2013-04-07 12:42:00,
2013-04-07 05:47:00,48.8,44.4,29.89,WNW,288,0.0,2.0,85,0.00,,,0.00,0,HR-IXPWINDi_r2_v1.2.,2013-04-07 12:47:00,
2013-04-07 05:52:00,48.7,44.6,29.89,WNW,293,2.0,3.0,86,0.00,,,0.00,0,HR-IXPWINDi_r2_v1.2.,2013-04-07 12:52:00,
2013-04-07 05:57:00,48.8,44.7,29.89,WNW,293,0.0,3.0,86,0.00,,,0.00,0,HR-IXPWINDi_r2_v1.2.,2013-04-07 12:57:00,
2013-04-07 06:03:00,48.4,44.3,29.89,WNW,293,0.0,2.0,86,0.00,,,0.00,0,HR-IXPWINDi_r2_v1.2.,2013-04-07 13:03:00,
2013-04-07 06:08:00,48.2,44.5,29.89,WNW,293,1.0,2.0,87,0.00,,,0.00,0,HR-IXPWINDi_r2_v1.2.,2013-04-07 13:08:00,
2013-04-07 06:13:00,48.3,44.6,29.89,WNW,293,0.0,2.0,87,0.00,,,0.00,0,HR-IXPWINDi_r2_v1.2.,2013-04-07 13:13:00,
2013-04-07 06:18:00,49.0,45.2,29.89,WNW,296,0.0,3.0,87,0.00,,,0.00,0,HR-IXPWINDi_r2_v1.2.,2013-04-07 13:18:00,
2013-04-07 06:23:00,49.1,45.0,29.89,WNW,296,1.0,3.0,86,0.00,,,0.00,0,HR-IXPWINDi_r2_v1.2.,2013-04-07 13:23:00,
2013-04-07 06:29:00,49.5,45.4,29.89,WNW,296,1.0,2.0,86,0.00,,,0.00,0,HR-IXPWINDi_r2_v1.2.,2013-04-07 13:29:00,
2013-04-07 06:34:00,49.7,45.3,29.89,NW,306,2.0,3.0,85,0.00,,,0.00,0,HR-IXPWINDi_r2_v1.2.,2013-04-07 13:34:00,
2013-04-07 06:39:00,50.7,45.7,29.89,NNW,340,1.0,6.0,83,0.00,,,0.00,0,HR-IXPWINDi_r2_v1.2.,2013-04-07 13:39:00,
2013-04-07 06:44:00,51.0,45.6,29.89,NW,316,2.0,6.0,82,0.00,,,0.00,7,HR-IXPWINDi_r2_v1.2.,2013-04-07 13:44:00,
2013-04-07 06:49:00,51.5,45.5,29.90,NW,307,3.0,5.0,80,0.00,,,0.00,12,HR-IXPWINDi_r2_v1.2.,2013-04-07 13:49:00,
2013-04-07 06:54:00,51.9,45.9,29.89,WNW,288,2.0,6.0,80,0.00,,,0.00,16,HR-IXPWINDi_r2_v1.2.,2013-04-07 13:54:00,
2013-04-07 06:59:00,52.2,45.8,29.90,NNW,327,1.0,6.0,79,0.00,,,0.00,19,HR-IXPWINDi_r2_v1.2.,2013-04-07 13:59:00,
2013-04-07 07:04:00,53.0,45.9,29.90,WNW,294,1.0,4.0,77,0.00,,,0.00,23,HR-IXPWINDi_r2_v1.2.,2013-04-07 14:04:00,
2013-04-07 07:09:00,53.4,46.0,29.91,WNW,293,0.0,4.0,76,0.00,,,0.00,26,HR-IXPWINDi_r2_v1.2.,2013-04-07 14:09:00,
2013-04-07 07:14:00,52.8,46.1,29.91,South,188,0.0,3.0,78,0.00,,,0.00,30,HR-IXPWINDi_r2_v1.2.,2013-04-07 14:14:00,
2013-04-07 07:20:00,52.3,46.3,29.91,South,188,0.0,2.0,80,0.00,,,0.00,30,HR-IXPWINDi_r2_v1.2.,2013-04-07 14:20:00,
2013-04-07 07:25:00,52.3,46.6,29.91,NW,311,1.0,3.0,81,0.00,,,0.00,33,HR-IXPWINDi_r2_v1.2.,2013-04-07 14:25:00,
2013-04-07 07:30:00,52.7,46.6,29.91,WNW,302,3.0,4.0,80,0.00,,,0.00,39,HR-IXPWINDi_r2_v1.2.,2013-04-07 14:30:00,
2013-04-07 07:35:00,53.0,46.9,29.91,WNW,302,1.0,4.0,80,0.00,,,0.00,44,HR-IXPWINDi_r2_v1.2.,2013-04-07 14:35:00,
2013-04-07 07:40:00,53.2,47.1,29.91,NW,313,3.0,3.0,80,0.00,,,0.00,47,HR-IXPWINDi_r2_v1.2.,2013-04-07 14:40:00,
2013-04-07 07:46:00,53.9,47.5,29.91,NW,304,0.0,4.0,79,0.00,,,0.00,53,HR-IXPWINDi_r2_v1.2.,2013-04-07 14:46:00,
2013-04-07 07:51:00,54.4,47.6,29.92,NW,304,0.0,4.0,78,0.00,,,0.00,58,HR-IXPWINDi_r2_v1.2.,2013-04-07 14:51:00,
2013-04-07 07:56:00,54.4,48.0,29.92,SSW,192,2.0,3.0,79,0.00,,,0.00,63,HR-IXPWINDi_r2_v1.2.,2013-04-07 14:56:00,
2013-04-07 08:01:00,53.9,48.1,29.92,SSW,192,1.0,3.0,81,0.00,,,0.00,70,HR-IXPWINDi_r2_v1.2.,2013-04-07 15:01:00,
2013-04-07 08:06:00,53.7,48.3,29.92,SSW,192,0.0,2.0,82,0.00,,,0.00,77,HR-IXPWINDi_r2_v1.2.,2013-04-07 15:06:00,
2013-04-07 08:11:00,53.9,48.1,29.92,SSW,192,0.0,1.0,81,0.00,,,0.00,84,HR-IXPWINDi_r2_v1.2.,2013-04-07 15:11:00,
2013-04-07 08:16:00,54.3,48.5,29.92,SSW,192,0.0,0.0,81,0.00,,,0.00,91,HR-IXPWINDi_r2_v1.2.,2013-04-07 15:16:00,
2013-04-07 08:22:00,54.6,49.2,29.92,SSW,192,0.0,1.0,82,0.00,,,0.00,104,HR-IXPWINDi_r2_v1.2.,2013-04-07 15:22:00,
2013-04-07 08:27:00,55.1,49.3,29.92,SSW,192,0.0,1.0,81,0.00,,,0.00,120,HR-IXPWINDi_r2_v1.2.,2013-04-07 15:27:00,
2013-04-07 08:32:00,55.7,49.9,29.92,SSW,192,0.0,0.0,81,0.00,,,0.00,132,HR-IXPWINDi_r2_v1.2.,2013-04-07 15:32:00,
2013-04-07 08:37:00,56.2,49.7,29.92,SSW,192,0.0,1.0,79,0.00,,,0.00,137,HR-IXPWINDi_r2_v1.2.,2013-04-07 15:37:00,
2013-04-07 08:42:00,56.9,51.1,29.92,SSW,192,0.0,1.0,81,0.00,,,0.00,146,HR-IXPWINDi_r2_v1.2.,2013-04-07 15:42:00,
2013-04-07 08:48:00,57.4,50.5,29.92,SSW,192,0.0,0.0,78,0.00,,,0.00,146,HR-IXPWINDi_r2_v1.2.,2013-04-07 15:48:00,
2013-04-07 08:53:00,57.7,51.2,29.92,SSW,192,1.0,1.0,79,0.00,,,0.00,153,HR-IXPWINDi_r2_v1.2.,2013-04-07 15:53:00,
2013-04-07 08:58:00,57.9,50.7,29.93,SSW,192,0.0,1.0,77,0.00,,,0.00,160,HR-IXPWINDi_r2_v1.2.,2013-04-07 15:58:00,
2013-04-07 09:03:00,58.6,50.3,29.93,SSW,192,0.0,1.0,74,0.00,,,0.00,171,HR-IXPWINDi_r2_v1.2.,2013-04-07 16:03:00,
2013-04-07 09:08:00,59.0,51.7,29.93,West,279,0.0,0.0,77,0.00,,,0.00,181,HR-IXPWINDi_r2_v1.2.,2013-04-07 16:08:00,
2013-04-07 09:14:00,59.4,51.4,29.93,SSE,162,0.0,3.0,75,0.00,,,0.00,230,HR-IXPWINDi_r2_v1.2.,2013-04-07 16:14:00,
2013-04-07 09:19:00,60.4,52.4,29.93,SSE,165,0.0,3.0,75,0.00,,,0.00,323,HR-IXPWINDi_r2_v1.2.,2013-04-07 16:19:00,
2013-04-07 09:24:00,61.5,53.1,29.93,SE,139,0.0,2.0,74,0.00,,,0.00,332,HR-IXPWINDi_r2_v1.2.,2013-04-07 16:24:00,
2013-04-07 09:29:00,62.5,52.9,29.93,East,83,1.0,2.0,71,0.00,,,0.00,262,HR-IXPWINDi_r2_v1.2.,2013-04-07 16:29:00,
2013-04-07 09:34:00,62.9,52.9,29.93,East,88,0.0,2.0,70,0.00,,,0.00,322,HR-IXPWINDi_r2_v1.2.,2013-04-07 16:34:00,
2013-04-07 09:39:00,62.9,52.1,29.93,SE,130,2.0,2.0,68,0.00,,,0.00,339,HR-IXPWINDi_r2_v1.2.,2013-04-07 16:39:00,
2013-04-07 09:45:00,63.8,54.2,29.93,East,81,0.0,2.0,71,0.00,,,0.00,345,HR-IXPWINDi_r2_v1.2.,2013-04-07 16:45:00,
2013-04-07 09:50:00,64.7,54.2,29.93,SSE,166,0.0,2.0,69,0.00,,,0.00,345,HR-IXPWINDi_r2_v1.2.,2013-04-07 16:50:00,
2013-04-07 09:55:00,64.9,54.0,29.93,SSE,166,2.0,2.0,68,0.00,,,0.00,334,HR-IXPWINDi_r2_v1.2.,2013-04-07 16:55:00,
2013-04-07 10:00:00,65.4,54.5,29.93,SSE,166,0.0,2.0,68,0.00,,,0.00,388,HR-IXPWINDi_r2_v1.2.,2013-04-07 17:00:00,
2013-04-07 10:05:00,66.4,54.6,29.93,East,79,0.0,2.0,66,0.00,,,0.00,424,HR-IXPWINDi_r2_v1.2.,2013-04-07 17:05:00,
2013-04-07 10:11:00,67.2,55.0,29.93,ESE,123,1.0,2.0,65,0.00,,,0.00,591,HR-IXPWINDi_r2_v1.2.,2013-04-07 17:11:00,
2013-04-07 10:16:00,68.5,55.4,29.93,East,83,0.0,2.0,63,0.00,,,0.00,504,HR-IXPWINDi_r2_v1.2.,2013-04-07 17:16:00,
2013-04-07 10:21:00,68.5,54.5,29.93,South,170,1.0,3.0,61,0.00,,,0.00,330,HR-IXPWINDi_r2_v1.2.,2013-04-07 17:21:00,
2013-04-07 10:26:00,69.1,55.9,29.93,SE,146,1.0,3.0,63,0.00,,,0.00,643,HR-IXPWINDi_r2_v1.2.,2013-04-07 17:26:00,
2013-04-07 10:31:00,71.6,56.5,29.93,South,175,2.0,3.0,59,0.00,,,0.00,608,HR-IXPWINDi_r2_v1.2.,2013-04-07 17:31:00,
2013-04-07 10:37:00,71.3,54.2,29.93,SSE,165,1.0,4.0,55,0.00,,,0.00,418,HR-IXPWINDi_r2_v1.2.,2013-04-07 17:37:00,
2013-04-07 10:42:00,70.8,51.2,29.93,South,171,2.0,4.0,50,0.00,,,0.00,306,HR-IXPWINDi_r2_v1.2.,2013-04-07 17:42:00,
2013-04-07 10:47:00,70.0,52.0,29.93,South,187,4.0,5.0,53,0.00,,,0.00,350,HR-IXPWINDi_r2_v1.2.,2013-04-07 17:47:00,
2013-04-07 10:52:00,70.3,53.8,29.93,South,180,5.0,6.0,56,0.00,,,0.00,555,HR-IXPWINDi_r2_v1.2.,2013-04-07 17:52:00,
2013-04-07 10:58:00,70.1,54.1,29.93,South,170,2.0,6.0,57,0.00,,,0.00,353,HR-IXPWINDi_r2_v1.2.,2013-04-07 17:58:00,
2013-04-07 11:03:00,70.0,54.0,29.93,SSW,200,3.0,6.0,57,0.00,,,0.00,385,HR-IXPWINDi_r2_v1.2.,2013-04-07 18:03:00,
2013-04-07 11:08:00,69.5,53.1,29.93,SSW,198,3.0,7.0,56,0.00,,,0.00,642,HR-IXPWINDi_r2_v1.2.,2013-04-07 18:08:00,
2013-04-07 11:13:00,69.9,52.4,29.93,SSE,163,4.0,7.0,54,0.00,,,0.00,555,HR-IXPWINDi_r2_v1.2.,2013-04-07 18:13:00,
2013-04-07 11:19:00,70.1,55.1,29.93,SSE,163,2.0,7.0,59,0.00,,,0.00,673,HR-IXPWINDi_r2_v1.2.,2013-04-07 18:19:00,
2013-04-07 11:24:00,70.0,55.4,29.93,SSW,193,6.0,7.0,60,0.00,,,0.00,563,HR-IXPWINDi_r2_v1.2.,2013-04-07 18:24:00,
2013-04-07 11:29:00,70.1,54.6,29.93,WNW,288,3.0,9.0,58,0.00,,,0.00,789,HR-IXPWINDi_r2_v1.2.,2013-04-07 18:29:00,
2013-04-07 11:34:00,70.1,52.6,29.93,SSE,167,4.0,9.0,54,0.00,,,0.00,671,HR-IXPWINDi_r2_v1.2.,2013-04-07 18:34:00,
2013-04-07 11:39:00,69.7,53.7,29.93,South,190,1.0,7.0,57,0.00,,,0.00,387,HR-IXPWINDi_r2_v1.2.,2013-04-07 18:39:00,
2013-04-07 11:45:00,69.7,54.2,29.92,South,184,5.0,7.0,58,0.00,,,0.00,362,HR-IXPWINDi_r2_v1.2.,2013-04-07 18:45:00,
2013-04-07 11:50:00,71.0,56.8,29.92,South,169,2.0,7.0,61,0.00,,,0.00,733,HR-IXPWINDi_r2_v1.2.,2013-04-07 18:50:00,
2013-04-07 11:55:00,71.3,56.2,29.92,South,169,1.0,7.0,59,0.00,,,0.00,784,HR-IXPWINDi_r2_v1.2.,2013-04-07 18:55:00,
2013-04-07 12:00:00,72.2,55.6,29.91,SE,142,2.0,9.0,56,0.00,,,0.00,594,HR-IXPWINDi_r2_v1.2.,2013-04-07 19:00:00,
2013-04-07 12:05:00,71.4,54.8,29.91,SSW,194,2.0,9.0,56,0.00,,,0.00,487,HR-IXPWINDi_r2_v1.2.,2013-04-07 19:05:00,
2013-04-07 12:11:00,71.6,56.0,29.91,South,178,2.0,4.0,58,0.00,,,0.00,645,HR-IXPWINDi_r2_v1.2.,2013-04-07 19:11:00,
2013-04-07 12:16:00,73.7,57.0,29.90,SSE,159,3.0,6.0,56,0.00,,,0.00,809,HR-IXPWINDi_r2_v1.2.,2013-04-07 19:16:00,
2013-04-07 12:21:00,74.9,55.5,29.90,South,169,7.0,8.0,51,0.00,,,0.00,675,HR-IXPWINDi_r2_v1.2.,2013-04-07 19:21:00,
2013-04-07 12:27:00,74.8,57.0,29.90,SSE,157,2.0,8.0,54,0.00,,,0.00,585,HR-IXPWINDi_r2_v1.2.,2013-04-07 19:27:00,
2013-04-07 12:32:00,74.6,55.2,29.90,South,171,6.0,12.0,51,0.00,,,0.00,548,HR-IXPWINDi_r2_v1.2.,2013-04-07 19:32:00,
2013-04-07 12:37:00,75.2,56.3,29.89,South,176,5.0,12.0,52,0.00,,,0.00,598,HR-IXPWINDi_r2_v1.2.,2013-04-07 19:37:00,
2013-04-07 12:42:00,75.5,55.5,29.89,South,169,3.0,8.0,50,0.00,,,0.00,786,HR-IXPWINDi_r2_v1.2.,2013-04-07 19:42:00,
2013-04-07 12:47:00,76.0,56.5,29.88,South,178,2.0,8.0,51,0.00,,,0.00,830,HR-IXPWINDi_r2_v1.2.,2013-04-07 19:47:00,
2013-04-07 12:53:00,76.0,57.1,29.87,ENE,68,4.0,9.0,52,0.00,,,0.00,796,HR-IXPWINDi_r2_v1.2.,2013-04-07 19:53:00,
2013-04-07 12:58:00,76.0,56.0,29.88,SE,127,0.0,9.0,50,0.00,,,0.00,814,HR-IXPWINDi_r2_v1.2.,2013-04-07 19:58:00,
2013-04-07 13:03:00,75.6,56.2,29.88,South,177,4.0,8.0,51,0.00,,,0.00,872,HR-IXPWINDi_r2_v1.2.,2013-04-07 20:03:00,
2013-04-07 13:08:00,75.2,56.3,29.87,ESE,121,2.0,7.0,52,0.00,,,0.00,860,HR-IXPWINDi_r2_v1.2.,2013-04-07 20:08:00,
2013-04-07 13:14:00,77.0,57.4,29.86,ESE,123,1.0,8.0,51,0.00,,,0.00,851,HR-IXPWINDi_r2_v1.2.,2013-04-07 20:14:00,
2013-04-07 13:19:00,77.5,57.9,29.86,East,79,1.0,9.0,51,0.00,,,0.00,851,HR-IXPWINDi_r2_v1.2.,2013-04-07 20:19:00,
2013-04-07 13:24:00,76.7,56.1,29.86,SSE,166,2.0,9.0,49,0.00,,,0.00,846,HR-IXPWINDi_r2_v1.2.,2013-04-07 20:24:00,
2013-04-07 13:29:00,76.4,54.6,29.86,SSE,160,2.0,9.0,47,0.00,,,0.00,844,HR-IXPWINDi_r2_v1.2.,2013-04-07 20:29:00,
2013-04-07 13:34:00,77.6,55.7,29.85,East,88,3.0,8.0,47,0.00,,,0.00,840,HR-IXPWINDi_r2_v1.2.,2013-04-07 20:34:00,
2013-04-07 13:39:00,77.6,56.3,29.86,SSE,163,7.0,9.0,48,0.00,,,0.00,837,HR-IXPWINDi_r2_v1.2.,2013-04-07 20:39:00,
2013-04-07 13:44:00,78.1,55.0,29.85,South,174,2.0,9.0,45,0.00,,,0.00,833,HR-IXPWINDi_r2_v1.2.,2013-04-07 20:44:00,
2013-04-07 13:50:00,78.5,56.0,29.86,South,181,2.0,7.0,46,0.00,,,0.00,828,HR-IXPWINDi_r2_v1.2.,2013-04-07 20:50:00,
2013-04-07 13:55:00,77.9,54.8,29.86,SSE,152,2.0,7.0,45,0.00,,,0.00,824,HR-IXPWINDi_r2_v1.2.,2013-04-07 20:55:00,
2013-04-07 14:00:00,77.8,54.7,29.86,South,182,5.0,7.0,45,0.00,,,0.00,819,HR-IXPWINDi_r2_v1.2.,2013-04-07 21:00:00,
2013-04-07 14:05:00,77.8,55.3,29.85,South,187,3.0,12.0,46,0.00,,,0.00,812,HR-IXPWINDi_r2_v1.2.,2013-04-07 21:05:00,
2013-04-07 14:10:00,77.7,56.4,29.85,SSE,166,2.0,12.0,48,0.00,,,0.00,807,HR-IXPWINDi_r2_v1.2.,2013-04-07 21:10:00,
2013-04-07 14:16:00,76.5,52.9,29.85,South,182,3.0,11.0,44,0.00,,,0.00,796,HR-IXPWINDi_r2_v1.2.,2013-04-07 21:16:00,
2013-04-07 14:21:00,76.3,56.2,29.85,South,182,3.0,11.0,50,0.00,,,0.00,782,HR-IXPWINDi_r2_v1.2.,2013-04-07 21:21:00,
2013-04-07 14:26:00,78.0,54.9,29.85,SE,124,2.0,8.0,45,0.00,,,0.00,775,HR-IXPWINDi_r2_v1.2.,2013-04-07 21:26:00,
2013-04-07 14:31:00,77.7,54.0,29.85,South,183,1.0,10.0,44,0.00,,,0.00,770,HR-IXPWINDi_r2_v1.2.,2013-04-07 21:31:00,
2013-04-07 14:36:00,76.1,51.3,29.84,SSW,202,4.0,10.0,42,0.00,,,0.00,763,HR-IXPWINDi_r2_v1.2.,2013-04-07 21:36:00,
2013-04-07 14:41:00,76.3,52.1,29.84,South,178,2.0,10.0,43,0.00,,,0.00,752,HR-IXPWINDi_r2_v1.2.,2013-04-07 21:41:00,
2013-04-07 14:46:00,75.9,51.8,29.83,NW,304,0.0,10.0,43,0.00,,,0.00,742,HR-IXPWINDi_r2_v1.2.,2013-04-07 21:46:00,
2013-04-07 14:51:00,75.7,52.8,29.83,South,188,7.0,10.0,45,0.00,,,0.00,728,HR-IXPWINDi_r2_v1.2.,2013-04-07 21:51:00,
2013-04-07 14:56:00,75.2,51.1,29.83,South,179,3.0,8.0,43,0.00,,,0.00,717,HR-IXPWINDi_r2_v1.2.,2013-04-07 21:56:00,
2013-04-07 15:02:00,74.6,51.8,29.83,South,180,4.0,7.0,45,0.00,,,0.00,708,HR-IXPWINDi_r2_v1.2.,2013-04-07 22:02:00,
2013-04-07 15:07:00,75.7,50.9,29.82,SSE,152,1.0,8.0,42,0.00,,,0.00,701,HR-IXPWINDi_r2_v1.2.,2013-04-07 22:07:00,
2013-04-07 15:12:00,76.8,51.3,29.83,SSW,202,5.0,8.0,41,0.00,,,0.00,694,HR-IXPWINDi_r2_v1.2.,2013-04-07 22:12:00,
2013-04-07 15:18:00,76.4,52.8,29.82,NE,52,1.0,7.0,44,0.00,,,0.00,684,HR-IXPWINDi_r2_v1.2.,2013-04-07 22:18:00,
2013-04-07 15:23:00,76.8,51.9,29.82,SSW,192,7.0,8.0,42,0.00,,,0.00,684,HR-IXPWINDi_r2_v1.2.,2013-04-07 22:23:00,
2013-04-07 15:28:00,77.8,53.5,29.82,South,169,4.0,8.0,43,0.00,,,0.00,689,HR-IXPWINDi_r2_v1.2.,2013-04-07 22:28:00,
2013-04-07 15:33:00,78.3,52.6,29.81,East,82,1.0,8.0,41,0.00,,,0.00,642,HR-IXPWINDi_r2_v1.2.,2013-04-07 22:33:00,
2013-04-07 15:38:00,78.0,52.4,29.81,SSE,157,1.0,7.0,41,0.00,,,0.00,689,HR-IXPWINDi_r2_v1.2.,2013-04-07 22:38:00,
2013-04-07 15:44:00,78.5,51.4,29.81,South,190,3.0,8.0,39,0.00,,,0.00,661,HR-IXPWINDi_r2_v1.2.,2013-04-07 22:44:00,
2013-04-07 15:49:00,78.4,52.7,29.80,SSE,166,5.0,8.0,41,0.00,,,0.00,608,HR-IXPWINDi_r2_v1.2.,2013-04-07 22:49:00,
2013-04-07 15:54:00,77.8,52.8,29.80,South,178,4.0,8.0,42,0.00,,,0.00,534,HR-IXPWINDi_r2_v1.2.,2013-04-07 22:54:00,
2013-04-07 15:59:00,77.8,52.2,29.80,South,172,3.0,8.0,41,0.00,,,0.00,425,HR-IXPWINDi_r2_v1.2.,2013-04-07 22:59:00,
2013-04-07 16:04:00,76.7,50.5,29.80,SSW,192,4.0,8.0,40,0.00,,,0.00,485,HR-IXPWINDi_r2_v1.2.,2013-04-07 23:04:00,
2013-04-07 16:10:00,76.2,51.4,29.80,South,185,0.0,8.0,42,0.00,,,0.00,545,HR-IXPWINDi_r2_v1.2.,2013-04-07 23:10:00,
2013-04-07 16:15:00,77.7,52.1,29.80,South,180,2.0,7.0,41,0.00,,,0.00,519,HR-IXPWINDi_r2_v1.2.,2013-04-07 23:15:00,
2013-04-07 16:20:00,77.7,52.7,29.79,South,180,3.0,7.0,42,0.00,,,0.00,497,HR-IXPWINDi_r2_v1.2.,2013-04-07 23:20:00,
2013-04-07 16:25:00,78.2,51.9,29.79,SE,142,1.0,7.0,40,0.00,,,0.00,480,HR-IXPWINDi_r2_v1.2.,2013-04-07 23:25:00,
2013-04-07 16:31:00,77.1,51.5,29.78,South,180,2.0,7.0,41,0.00,,,0.00,466,HR-IXPWINDi_r2_v1.2.,2013-04-07 23:31:00,
2013-04-07 16:36:00,76.4,53.4,29.78,South,172,1.0,7.0,45,0.00,,,0.00,448,HR-IXPWINDi_r2_v1.2.,2013-04-07 23:36:00,
2013-04-07 16:41:00,75.2,52.4,29.78,SSW,204,2.0,7.0,45,0.00,,,0.00,429,HR-IXPWINDi_r2_v1.2.,2013-04-07 23:41:00,
2013-04-07 16:46:00,75.5,51.4,29.78,South,176,2.0,7.0,43,0.00,,,0.00,415,HR-IXPWINDi_r2_v1.2.,2013-04-07 23:46:00,
2013-04-07 16:51:00,75.2,52.4,29.78,SSW,198,3.0,6.0,45,0.00,,,0.00,403,HR-IXPWINDi_r2_v1.2.,2013-04-07 23:51:00,
2013-04-07 16:56:00,75.4,51.3,29.78,SSW,205,3.0,6.0,43,0.00,,,0.00,388,HR-IXPWINDi_r2_v1.2.,2013-04-07 23:56:00,
2013-04-07 17:01:00,75.5,53.2,29.77,SSW,213,3.0,5.0,46,0.00,,,0.00,366,HR-IXPWINDi_r2_v1.2.,2013-04-08 00:01:00,
2013-04-07 17:07:00,76.5,52.3,29.78,SSW,205,0.0,5.0,43,0.00,,,0.00,346,HR-IXPWINDi_r2_v1.2.,2013-04-08 00:07:00,
2013-04-07 17:12:00,76.7,53.1,29.77,SSE,167,2.0,4.0,44,0.00,,,0.00,327,HR-IXPWINDi_r2_v1.2.,2013-04-08 00:12:00,
2013-04-07 17:17:00,76.7,53.1,29.76,SSE,167,2.0,4.0,44,0.00,,,0.00,308,HR-IXPWINDi_r2_v1.2.,2013-04-08 00:17:00,
2013-04-07 17:22:00,76.0,53.1,29.76,South,169,2.0,8.0,45,0.00,,,0.00,288,HR-IXPWINDi_r2_v1.2.,2013-04-08 00:22:00,
2013-04-07 17:27:00,75.8,52.3,29.76,SSW,198,0.0,8.0,44,0.00,,,0.00,267,HR-IXPWINDi_r2_v1.2.,2013-04-08 00:27:00,
2013-04-07 17:33:00,74.6,51.2,29.76,SSW,212,3.0,7.0,44,0.00,,,0.00,251,HR-IXPWINDi_r2_v1.2.,2013-04-08 00:33:00,
2013-04-07 17:38:00,73.6,51.5,29.76,SW,234,0.0,7.0,46,0.00,,,0.00,234,HR-IXPWINDi_r2_v1.2.,2013-04-08 00:38:00,
2013-04-07 17:43:00,74.0,52.4,29.75,SSW,194,0.0,6.0,47,0.00,,,0.00,163,HR-IXPWINDi_r2_v1.2.,2013-04-08 00:43:00,
2013-04-07 17:48:00,73.7,51.6,29.75,SSW,207,2.0,5.0,46,0.00,,,0.00,79,HR-IXPWINDi_r2_v1.2.,2013-04-08 00:48:00,
2013-04-07 17:53:00,73.0,51.5,29.75,WSW,238,2.0,5.0,47,0.00,,,0.00,70,HR-IXPWINDi_r2_v1.2.,2013-04-08 00:53:00,
2013-04-07 17:59:00,72.4,51.6,29.75,WSW,238,0.0,4.0,48,0.00,,,0.00,62,HR-IXPWINDi_r2_v1.2.,2013-04-08 00:59:00,
2013-04-07 18:04:00,72.1,52.4,29.76,WSW,238,0.0,2.0,50,0.00,,,0.00,62,HR-IXPWINDi_r2_v1.2.,2013-04-08 01:04:00,
2013-04-07 18:09:00,72.2,51.9,29.76,WSW,238,0.0,0.0,49,0.00,,,0.00,62,HR-IXPWINDi_r2_v1.2.,2013-04-08 01:09:00,
2013-04-07 18:14:00,71.9,52.2,29.76,South,182,3.0,5.0,50,0.00,,,0.00,56,HR-IXPWINDi_r2_v1.2.,2013-04-08 01:14:00,
2013-04-07 18:19:00,71.4,51.7,29.75,SW,231,1.0,5.0,50,0.00,,,0.00,51,HR-IXPWINDi_r2_v1.2.,2013-04-08 01:19:00,
2013-04-07 18:24:00,70.9,52.3,29.75,West,265,2.0,8.0,52,0.00,,,0.00,46,HR-IXPWINDi_r2_v1.2.,2013-04-08 01:24:00,
2013-04-07 18:29:00,70.7,52.2,29.76,WSW,256,2.0,8.0,52,0.00,,,0.00,42,HR-IXPWINDi_r2_v1.2.,2013-04-08 01:29:00,
2013-04-07 18:34:00,70.4,52.4,29.75,WSW,257,2.0,5.0,53,0.00,,,0.00,39,HR-IXPWINDi_r2_v1.2.,2013-04-08 01:34:00,
2013-04-07 18:39:00,70.0,52.5,29.75,SSW,196,2.0,4.0,54,0.00,,,0.00,32,HR-IXPWINDi_r2_v1.2.,2013-04-08 01:39:00,
2013-04-07 18:45:00,69.6,52.7,29.75,SW,232,0.0,4.0,55,0.00,,,0.00,23,HR-IXPWINDi_r2_v1.2.,2013-04-08 01:45:00,
2013-04-07 18:50:00,69.0,52.6,29.75,SW,232,0.0,4.0,56,0.00,,,0.00,19,HR-IXPWINDi_r2_v1.2.,2013-04-08 01:50:00,
2013-04-07 18:55:00,68.6,53.2,29.75,WSW,238,0.0,2.0,58,0.00,,,0.00,18,HR-IXPWINDi_r2_v1.2.,2013-04-08 01:55:00,
2013-04-07 19:00:00,68.3,52.9,29.75,WSW,238,0.0,2.0,58,0.00,,,0.00,14,HR-IXPWINDi_r2_v1.2.,2013-04-08 02:00:00,
2013-04-07 19:06:00,67.4,53.0,29.75,WSW,238,0.0,1.0,60,0.00,,,0.00,11,HR-IXPWINDi_r2_v1.2.,2013-04-08 02:06:00,
2013-04-07 19:11:00,66.6,52.7,29.75,West,259,0.0,2.0,61,0.00,,,0.00,7,HR-IXPWINDi_r2_v1.2.,2013-04-08 02:11:00,
2013-04-07 19:16:00,66.3,52.8,29.75,West,259,0.0,2.0,62,0.00,,,0.00,5,HR-IXPWINDi_r2_v1.2.,2013-04-08 02:16:00,
2013-04-07 19:21:00,65.7,52.7,29.76,West,259,0.0,0.0,63,0.00,,,0.00,0,HR-IXPWINDi_r2_v1.2.,2013-04-08 02:21:00,
2013-04-07 19:26:00,65.3,52.8,29.75,West,259,0.0,0.0,64,0.00,,,0.00,0,HR-IXPWINDi_r2_v1.2.,2013-04-08 02:26:00,
2013-04-07 19:31:00,64.4,52.3,29.75,West,259,0.0,0.0,65,0.00,,,0.00,0,HR-IXPWINDi_r2_v1.2.,2013-04-08 02:31:00,
2013-04-07 19:36:00,63.5,52.7,29.75,West,259,0.0,0.0,68,0.00,,,0.00,0,HR-IXPWINDi_r2_v1.2.,2013-04-08 02:36:00,
2013-04-07 21:00:00,58.2,50.3,29.76,West,267,1.0,1.0,75,0.00,,,0.00,0,HR-IXPWINDi_r2_v1.2.,2013-04-08 04:00:00,
2013-04-07 21:05:00,58.2,50.6,29.76,West,275,2.0,3.0,76,0.00,,,0.00,0,HR-IXPWINDi_r2_v1.2.,2013-04-08 04:05:00,
2013-04-07 21:10:00,58.1,50.2,29.76,West,275,1.0,3.0,75,0.00,,,0.00,0,HR-IXPWINDi_r2_v1.2.,2013-04-08 04:10:00,
2013-04-07 21:15:00,57.8,50.2,29.76,WNW,300,0.0,2.0,76,0.00,,,0.00,0,HR-IXPWINDi_r2_v1.2.,2013-04-08 04:15:00,
2013-04-07 21:20:00,57.8,50.2,29.76,WNW,300,0.0,2.0,76,0.00,,,0.00,0,HR-IXPWINDi_r2_v1.2.,2013-04-08 04:20:00,
2013-04-07 21:25:00,57.5,49.9,29.76,WNW,300,0.0,0.0,76,0.00,,,0.00,0,HR-IXPWINDi_r2_v1.2.,2013-04-08 04:25:00,
2013-04-07 21:30:00,57.0,49.8,29.77,WNW,300,0.0,0.0,77,0.00,,,0.00,0,HR-IXPWINDi_r2_v1.2.,2013-04-08 04:30:00,
2013-04-07 21:36:00,56.3,49.8,29.77,WNW,300,0.0,2.0,79,0.00,,,0.00,0,HR-IXPWINDi_r2_v1.2.,2013-04-08 04:36:00,
2013-04-07 21:41:00,56.0,49.5,29.77,WNW,300,1.0,2.0,79,0.00,,,0.00,0,HR-IXPWINDi_r2_v1.2.,2013-04-08 04:41:00,
2013-04-07 21:46:00,55.8,49.3,29.77,WNW,300,0.0,1.0,79,0.00,,,0.00,0,HR-IXPWINDi_r2_v1.2.,2013-04-08 04:46:00,
2013-04-07 21:51:00,55.3,49.5,29.77,WNW,300,0.0,2.0,81,0.00,,,0.00,0,HR-IXPWINDi_r2_v1.2.,2013-04-08 04:51:00,
2013-04-07 21:56:00,55.3,49.5,29.77,WNW,300,0.0,2.0,81,0.00,,,0.00,0,HR-IXPWINDi_r2_v1.2.,2013-04-08 04:56:00,
2013-04-07 22:02:00,55.2,49.4,29.77,WNW,300,0.0,1.0,81,0.00,,,0.00,0,HR-IXPWINDi_r2_v1.2.,2013-04-08 05:02:00,
2013-04-07 22:07:00,55.3,49.2,29.77,WNW,300,1.0,1.0,80,0.00,,,0.00,0,HR-IXPWINDi_r2_v1.2.,2013-04-08 05:07:00,
2013-04-07 22:12:00,55.3,49.5,29.77,WNW,298,0.0,3.0,81,0.00,,,0.00,0,HR-IXPWINDi_r2_v1.2.,2013-04-08 05:12:00,
2013-04-07 22:17:00,55.5,49.4,29.77,NW,306,0.0,3.0,80,0.00,,,0.00,0,HR-IXPWINDi_r2_v1.2.,2013-04-08 05:17:00,
2013-04-07 22:23:00,55.7,49.2,29.77,NW,306,0.0,2.0,79,0.00,,,0.00,0,HR-IXPWINDi_r2_v1.2.,2013-04-08 05:23:00,
2013-04-07 22:28:00,55.6,49.1,29.77,WNW,301,1.0,3.0,79,0.00,,,0.00,0,HR-IXPWINDi_r2_v1.2.,2013-04-08 05:28:00,
2013-04-07 22:33:00,55.4,48.9,29.77,WNW,301,1.0,3.0,79,0.00,,,0.00,0,HR-IXPWINDi_r2_v1.2.,2013-04-08 05:33:00,
2013-04-07 22:38:00,55.0,48.5,29.77,WNW,301,0.0,2.0,79,0.00,,,0.00,0,HR-IXPWINDi_r2_v1.2.,2013-04-08 05:38:00,
2013-04-07 22:43:00,54.6,48.5,29.77,WNW,301,0.0,1.0,80,0.00,,,0.00,0,HR-IXPWINDi_r2_v1.2.,2013-04-08 05:43:00,
2013-04-07 22:48:00,54.9,48.8,29.77,WNW,294,2.0,3.0,80,0.00,,,0.00,0,HR-IXPWINDi_r2_v1.2.,2013-04-08 05:48:00,
2013-04-07 22:53:00,55.3,48.8,29.77,NW,316,0.0,4.0,79,0.00,,,0.00,0,HR-IXPWINDi_r2_v1.2.,2013-04-08 05:53:00,
2013-04-07 22:58:00,55.4,48.6,29.78,WNW,298,0.0,4.0,78,0.00,,,0.00,0,HR-IXPWINDi_r2_v1.2.,2013-04-08 05:58:00,
2013-04-07 23:03:00,55.3,48.5,29.77,WNW,298,3.0,3.0,78,0.00,,,0.00,0,HR-IXPWINDi_r2_v1.2.,2013-04-08 06:03:00,
2013-04-07 23:09:00,54.8,48.0,29.77,WNW,298,0.0,3.0,78,0.00,,,0.00,0,HR-IXPWINDi_r2_v1.2.,2013-04-08 06:09:00,
2013-04-07 23:15:00,54.2,47.8,29.77,WNW,298,0.0,3.0,79,0.00,,,0.00,0,HR-IXPWINDi_r2_v1.2.,2013-04-08 06:15:00,
2013-04-07 23:20:00,53.6,47.9,29.77,WNW,298,0.0,1.0,81,0.00,,,0.00,0,HR-IXPWINDi_r2_v1.2.,2013-04-08 06:20:00,
2013-04-07 23:25:00,53.2,47.8,29.77,WNW,298,0.0,2.0,82,0.00,,,0.00,0,HR-IXPWINDi_r2_v1.2.,2013-04-08 06:25:00,
2013-04-07 23:30:00,53.2,47.8,29.77,WNW,298,0.0,2.0,82,0.00,,,0.00,0,HR-IXPWINDi_r2_v1.2.,2013-04-08 06:30:00,
2013-04-07 23:36:00,53.0,47.6,29.77,WNW,298,0.0,1.0,82,0.00,,,0.00,0,HR-IXPWINDi_r2_v1.2.,2013-04-08 06:36:00,
2013-04-07 23:41:00,52.6,47.2,29.77,WNW,298,0.0,1.0,82,0.00,,,0.00,0,HR-IXPWINDi_r2_v1.2.,2013-04-08 06:41:00,
2013-04-07 23:46:00,52.1,47.0,29.76,WNW,298,0.0,1.0,83,0.00,,,0.00,0,HR-IXPWINDi_r2_v1.2.,2013-04-08 06:46:00,
2013-04-07 23:51:00,52.1,47.4,29.77,WNW,298,0.0,1.0,84,0.00,,,0.00,0,HR-IXPWINDi_r2_v1.2.,2013-04-08 06:51:00,
2013-04-07 23:56:00,52.3,47.5,29.77,WNW,298,0.0,1.0,84,0.00,,,0.00,0,HR-IXPWINDi_r2_v1.2.,2013-04-08 06:56:00,